Location: Newark
(11.4947°N, 0.1467°E)
Time: 10:20:30
(UTC+00:00)

N. Korean satellite - Visible Passes

Search period start: 21 November 2019 00:00
Search period end: 01 December 2019 00:00
Orbit: 456 x 506 km, 97.2° (Epoch: 20 November)

Date Brightness Start Highest point End Pass type
(mag) Time Alt. Az. Time Alt. Az. Time Alt. Az.
21 Nov 7.1 05:27:14 10° NNE 05:30:48 63° E 05:34:19 10° S visible
22 Nov 9.3 05:02:31 10° NE 05:05:25 23° E 05:08:17 10° SSE visible
23 Nov 9.8 18:03:42 10° SW 18:06:20 19° W 18:08:59 10° NW visible
25 Nov 7.9 05:19:09 10° NNE 05:22:35 44° E 05:25:57 10° S visible
26 Nov 9.8 04:54:47 10° NE 04:57:11 17° E 04:59:33 10° SE visible
26 Nov 10.5 18:22:53 10° WSW 18:23:30 10° W 18:24:07 10° W visible
27 Nov 9.3 17:55:02 10° SSW 17:58:05 26° W 18:01:11 10° NW visible
28 Nov 6.5 05:36:08 10° N 05:39:41 87° W 05:43:11 10° SSW visible
29 Nov 8.6 05:11:07 10° NE 05:14:18 32° E 05:17:27 10° SSE visible
30 Nov 10.0 04:47:18 10° ENE 04:48:53 13° E 04:50:28 10° SE visible
30 Nov 10.0 18:13:13 10° SW 18:15:13 14° W 18:17:13 10° WNW visible
